This is the latest recevied weather packets stored in our database for station/object KE8WMS. If no packets are shown the sender has not sent any weather packets the latest 10 day(s).
| Time | Temp. | Humidity | Pressure | Rain* | Wind** | Luminosity | Snow |
|---|---|---|---|---|---|---|---|
| 1777751992 | 6.67° C | 62% | 1014.2 hPa | 0 mm | - | 199 W/m² | - |
| 1777751690 | 6.67° C | 59% | 1014.6 hPa | 0 mm | - | 193 W/m² | - |
| 1777751386 | 6.67° C | 62% | 1014.4 hPa | 0 mm | - | 241 W/m² | - |
| 1777751083 | 6.67° C | 60% | 1014.3 hPa | 0 mm | - | 262 W/m² | - |
| 1777750778 | 6.67° C | 61% | 1014.6 hPa | 0 mm | - | 218 W/m² | - |
| 1777750476 | 7.22° C | 60% | 1014.4 hPa | 0 mm | - | 236 W/m² | - |
| 1777750171 | 6.67° C | 60% | 1014.4 hPa | 0 mm | - | 298 W/m² | - |
| 1777749869 | 7.22° C | 60% | 1014.5 hPa | 0 mm | - | 762 W/m² | - |
| 1777749566 | 7.22° C | 58% | 1014.4 hPa | 0 mm | - | 628 W/m² | - |
| 1777749263 | 7.22° C | 59% | 1014.6 hPa | 0 mm | - | 180 W/m² | - |
| 1777748961 | 7.78° C | 57% | 1014.6 hPa | 0 mm | - | 265 W/m² | - |
| 1777748658 | 7.78° C | 60% | 1014.8 hPa | 0 mm | - | 620 W/m² | - |
| 1777748354 | 7.22° C | 59% | 1014.7 hPa | 0 mm | - | 429 W/m² | - |
| 1777748049 | 7.78° C | 56% | 1014.8 hPa | 0 mm | - | 194 W/m² | - |
| 1777747747 | 7.78° C | 57% | 1014.7 hPa | 0 mm | - | 304 W/m² | - |
| 1777747442 | 8.33° C | 53% | 1014.6 hPa | 0 mm | - | 347 W/m² | - |
| 1777747139 | 7.78° C | 57% | 1014.7 hPa | 0 mm | - | 721 W/m² | - |
| 1777746835 | 8.89° C | 54% | 1014.8 hPa | 0 mm | - | 728 W/m² | - |
| 1777746530 | 8.33° C | 60% | 1014.7 hPa | 0 mm | - | 805 W/m² | - |
| 1777746226 | 7.78° C | 57% | 1014.9 hPa | 0 mm | - | 303 W/m² | - |
| 1777745922 | 8.89° C | 61% | 1014.7 hPa | 0 mm | - | 767 W/m² | - |
| 1777745622 | 8.33° C | 59% | 1014.9 hPa | 0 mm | - | 766 W/m² | - |
| 1777745319 | 7.22° C | 60% | 1015 hPa | 0 mm | - | 786 W/m² | - |
| 1777745016 | 7.78° C | 64% | 1014.9 hPa | 0 mm | - | 529 W/m² | - |
| 1777744712 | 7.22° C | 62% | 1014.9 hPa | 0 mm | - | 827 W/m² | - |
* Rain latest hour (hover to see other rain measurements)
** Current wind speed in m/s (hover to see current wind gust speed)